HAZ7410 UHWW-ZYTX

Flight info

Callsign HAZ7410
Flight time 1h 27m
Altitude 38100
Route SANAR2W SANAR B451 WQG G341 LJB A588 LEMOT LEM61A
Aircraft A319/M-SDE3FGHIRWY/LB1

Departure

Time 2026-04-22 11:27
Airport Vladivostok International Airport (UHWW)

Arrival

Time 2026-04-22 12:54
Airport Shenyang Taoxian International Airport (ZYTX)
Time Latitude Longitude Altitude Speed Heading
2026-04-22 11:08 43.39719 132.16487 56 ft 0 kts 150°
2026-04-22 11:20 43.39724 132.16484 56 ft 2 kts 150°
2026-04-22 11:20 43.39737 132.16475 56 ft 2 kts 150°
2026-04-22 11:20 43.39750 132.16464 55 ft 2 kts 150°
2026-04-22 11:21 43.39763 132.16454 55 ft 2 kts 150°
2026-04-22 11:21 43.39776 132.16444 55 ft 2 kts 150°
2026-04-22 11:21 43.39784 132.16438 55 ft 2 kts 150°
2026-04-22 11:21 43.39794 132.16423 55 ft 2 kts 112°
2026-04-22 11:22 43.39797 132.16403 55 ft 2 kts 83°
2026-04-22 11:22 43.39795 132.16391 55 ft 0 kts 63°
2026-04-22 11:22 43.39791 132.16382 56 ft 0 kts 60°
2026-04-22 11:24 43.39801 132.16406 55 ft 5 kts 62°
2026-04-22 11:24 43.39827 132.16473 52 ft 10 kts 61°
2026-04-22 11:24 43.39871 132.16580 49 ft 14 kts 60°
2026-04-22 11:24 43.39926 132.16716 46 ft 17 kts 60°
2026-04-22 11:25 43.39988 132.16867 44 ft 19 kts 63°
2026-04-22 11:25 43.40055 132.17036 40 ft 20 kts 60°
2026-04-22 11:25 43.40157 132.17061 38 ft 18 kts 332°
2026-04-22 11:25 43.40274 132.16972 36 ft 19 kts 333°
2026-04-22 11:26 43.40393 132.16879 36 ft 17 kts 330°
2026-04-22 11:26 43.40421 132.16766 36 ft 12 kts 243°
2026-04-22 11:26 43.40286 132.16422 41 ft 80 kts 245°
2026-04-22 11:26 43.39901 132.15469 62 ft 147 kts 240°
2026-04-22 11:27 43.39381 132.14154 602 ft 159 kts 247°
2026-04-22 11:27 43.38974 132.12865 1541 ft 144 kts 254°
2026-04-22 11:27 43.38573 132.11658 2200 ft 140 kts 251°
2026-04-22 11:27 43.38102 132.10486 2769 ft 141 kts 247°
2026-04-22 11:28 43.37593 132.09331 3305 ft 144 kts 247°
2026-04-22 11:28 43.37061 132.08107 3703 ft 158 kts 247°
2026-04-22 11:28 43.36479 132.06751 4106 ft 174 kts 247°
2026-04-22 11:28 43.35832 132.05246 4505 ft 192 kts 246°
2026-04-22 11:29 43.35117 132.03577 4911 ft 210 kts 246°
2026-04-22 11:29 43.34455 132.01765 5446 ft 218 kts 256°
2026-04-22 11:29 43.34003 131.99738 5876 ft 233 kts 260°
2026-04-22 11:29 43.33553 131.97510 6273 ft 250 kts 260°
2026-04-22 11:30 43.33067 131.95198 6836 ft 257 kts 259°
2026-04-22 11:30 43.32555 131.92853 7561 ft 259 kts 258°
2026-04-22 11:30 43.32030 131.90505 8278 ft 260 kts 258°
2026-04-22 11:30 43.31493 131.88135 8997 ft 261 kts 258°
2026-04-22 11:31 43.30951 131.85757 9692 ft 262 kts 258°
2026-04-22 11:31 43.30406 131.83377 10305 ft 266 kts 258°
2026-04-22 11:31 43.29839 131.80885 10630 ft 280 kts 257°
2026-04-22 11:31 43.29242 131.78276 10862 ft 292 kts 257°
2026-04-22 11:32 43.28624 131.75594 11214 ft 300 kts 257°
2026-04-22 11:32 43.27995 131.72888 11687 ft 302 kts 257°
2026-04-22 11:32 43.27361 131.70155 12161 ft 303 kts 257°
2026-04-22 11:32 43.26715 131.67374 12601 ft 304 kts 257°
2026-04-22 11:33 43.26073 131.64615 13006 ft 306 kts 257°
2026-04-22 11:33 43.25432 131.61855 13489 ft 307 kts 257°
2026-04-22 11:33 43.24788 131.59080 13873 ft 309 kts 257°
2026-04-22 11:33 43.24131 131.56271 14257 ft 310 kts 257°
2026-04-22 11:34 43.23476 131.53470 14625 ft 311 kts 257°
2026-04-22 11:34 43.22812 131.50635 14965 ft 312 kts 257°
2026-04-22 11:34 43.22201 131.47827 15350 ft 309 kts 262°
2026-04-22 11:34 43.21857 131.44930 15716 ft 305 kts 269°
2026-04-22 11:35 43.21802 131.42056 16089 ft 302 kts 276°
2026-04-22 11:35 43.21965 131.39182 16435 ft 301 kts 278°
2026-04-22 11:35 43.22163 131.36343 16726 ft 301 kts 279°
2026-04-22 11:35 43.22362 131.33498 17083 ft 300 kts 278°
2026-04-22 11:36 43.22564 131.30682 17402 ft 300 kts 279°
2026-04-22 11:36 43.22769 131.27812 17671 ft 301 kts 279°
2026-04-22 11:36 43.22968 131.24995 17930 ft 302 kts 279°
2026-04-22 11:36 43.23172 131.22111 18228 ft 302 kts 278°
2026-04-22 11:37 43.23367 131.19272 18453 ft 301 kts 278°
2026-04-22 11:37 43.23515 131.16428 18776 ft 299 kts 278°
2026-04-22 11:37 43.23650 131.13596 19151 ft 296 kts 277°
2026-04-22 11:37 43.23783 131.10829 19623 ft 290 kts 277°
2026-04-22 11:38 43.23911 131.08064 19841 ft 292 kts 278°
2026-04-22 11:38 43.24045 131.05272 19942 ft 297 kts 278°
2026-04-22 11:38 43.24312 130.99570 20229 ft 303 kts 278°
2026-04-22 11:39 43.24448 130.96689 20397 ft 304 kts 278°
2026-04-22 11:39 43.24579 130.93820 20656 ft 301 kts 277°
2026-04-22 11:39 43.24705 130.91022 21288 ft 289 kts 277°
2026-04-22 11:39 43.24827 130.88344 22015 ft 276 kts 278°
2026-04-22 11:40 43.24941 130.85800 22674 ft 258 kts 278°
2026-04-22 11:40 43.25048 130.83429 22947 ft 254 kts 277°
2026-04-22 11:40 43.25153 130.81076 23472 ft 236 kts 277°
2026-04-22 11:40 43.25249 130.78909 24212 ft 223 kts 277°
2026-04-22 11:41 43.25344 130.76819 24850 ft 224 kts 278°
2026-04-22 11:41 43.25447 130.74637 25140 ft 238 kts 277°
2026-04-22 11:41 43.25557 130.72319 25379 ft 252 kts 277°
2026-04-22 11:41 43.25668 130.69862 25636 ft 266 kts 277°
2026-04-22 11:42 43.25784 130.67258 25896 ft 280 kts 276°
2026-04-22 11:42 43.25904 130.64558 26151 ft 293 kts 277°
2026-04-22 11:42 43.26030 130.61731 26364 ft 305 kts 276°
2026-04-22 11:42 43.26161 130.58762 26578 ft 317 kts 276°
2026-04-22 11:43 43.26293 130.55702 26773 ft 328 kts 276°
2026-04-22 11:43 43.26429 130.52515 26983 ft 338 kts 276°
2026-04-22 11:43 43.26567 130.49281 27160 ft 348 kts 276°
2026-04-22 11:43 43.26709 130.45940 27364 ft 357 kts 276°
2026-04-22 11:44 43.26853 130.42487 27705 ft 362 kts 276°
2026-04-22 11:44 43.26995 130.39072 28126 ft 364 kts 276°
2026-04-22 11:44 43.27137 130.35622 28555 ft 365 kts 276°
2026-04-22 11:44 43.27279 130.32140 29074 ft 365 kts 275°
2026-04-22 11:45 43.27423 130.28674 29696 ft 362 kts 275°
2026-04-22 11:45 43.27558 130.25285 30315 ft 359 kts 275°
2026-04-22 11:45 43.27693 130.21874 30848 ft 357 kts 275°
2026-04-22 11:45 43.27831 130.18530 31337 ft 356 kts 275°
2026-04-22 11:46 43.27964 130.15124 31772 ft 357 kts 275°
2026-04-22 11:46 43.28097 130.11754 32168 ft 358 kts 275°
2026-04-22 11:46 43.28230 130.08366 32632 ft 357 kts 274°
2026-04-22 11:46 43.28362 130.04947 33064 ft 357 kts 274°
2026-04-22 11:47 43.28490 130.01573 33474 ft 357 kts 274°
2026-04-22 11:47 43.28618 129.98210 33813 ft 358 kts 274°
2026-04-22 11:47 43.28745 129.94795 34272 ft 359 kts 274°
2026-04-22 11:47 43.28875 129.91373 34764 ft 358 kts 273°
2026-04-22 11:48 43.28996 129.88001 35130 ft 357 kts 274°
2026-04-22 11:48 43.29121 129.84581 35511 ft 358 kts 274°
2026-04-22 11:48 43.29293 129.81206 35856 ft 359 kts 276°
2026-04-22 11:48 43.29575 129.77828 36216 ft 359 kts 278°
2026-04-22 11:49 43.29970 129.74420 36556 ft 360 kts 280°
2026-04-22 11:49 43.30437 129.71086 36833 ft 362 kts 280°
2026-04-22 11:49 43.30919 129.67656 37054 ft 364 kts 280°
2026-04-22 11:49 43.31394 129.64262 37306 ft 366 kts 281°
2026-04-22 11:50 43.31876 129.60835 37483 ft 369 kts 281°
2026-04-22 11:50 43.32361 129.57394 37696 ft 370 kts 281°
2026-04-22 11:50 43.32853 129.53900 37874 ft 372 kts 281°
2026-04-22 11:50 43.33344 129.50424 38025 ft 374 kts 281°
2026-04-22 11:51 43.34327 129.43420 38012 ft 376 kts 281°
2026-04-22 11:51 43.35313 129.36366 38048 ft 376 kts 281°
2026-04-22 11:52 43.36289 129.29344 38012 ft 376 kts 280°
2026-04-22 11:52 43.37263 129.22316 38023 ft 376 kts 280°
2026-04-22 11:53 43.38227 129.15308 38010 ft 376 kts 280°
2026-04-22 11:53 43.39190 129.08267 38003 ft 376 kts 281°
2026-04-22 11:54 43.40148 129.01175 38012 ft 376 kts 280°
2026-04-22 11:54 43.41080 128.94124 38034 ft 376 kts 280°
2026-04-22 11:55 43.42001 128.87091 38024 ft 377 kts 280°
2026-04-22 11:55 43.42925 128.80039 38035 ft 376 kts 280°
2026-04-22 11:56 43.43845 128.72937 38041 ft 377 kts 280°
2026-04-22 11:56 43.44756 128.65891 38039 ft 377 kts 280°
2026-04-22 11:57 43.45665 128.58804 38033 ft 378 kts 280°
2026-04-22 11:57 43.46581 128.51674 38049 ft 378 kts 280°
2026-04-22 11:58 43.47481 128.44586 38061 ft 378 kts 279°
2026-04-22 11:58 43.48378 128.37482 38067 ft 377 kts 279°
2026-04-22 11:59 43.49269 128.30370 38042 ft 379 kts 279°
2026-04-22 11:59 43.50200 128.23221 38069 ft 380 kts 280°
2026-04-22 12:00 43.51150 128.16081 38071 ft 380 kts 279°
2026-04-22 12:00 43.52091 128.08943 38078 ft 379 kts 279°
2026-04-22 12:01 43.53016 128.01848 38052 ft 380 kts 279°
2026-04-22 12:01 43.53947 127.94673 38057 ft 383 kts 279°
2026-04-22 12:02 43.54871 127.87496 38051 ft 381 kts 280°
2026-04-22 12:02 43.55790 127.80344 38039 ft 381 kts 279°
2026-04-22 12:03 43.56714 127.73161 38049 ft 382 kts 279°
2026-04-22 12:03 43.57629 127.66017 38069 ft 380 kts 279°
2026-04-22 12:04 43.58538 127.58841 38072 ft 381 kts 280°
2026-04-22 12:04 43.59446 127.51654 38089 ft 381 kts 279°
2026-04-22 12:05 43.60347 127.44465 38094 ft 381 kts 279°
2026-04-22 12:05 43.61234 127.37324 38079 ft 381 kts 279°
2026-04-22 12:06 43.62125 127.30120 38088 ft 382 kts 279°
2026-04-22 12:06 43.62963 127.22900 38052 ft 383 kts 278°
2026-04-22 12:07 43.63752 127.15640 38091 ft 383 kts 278°
2026-04-22 12:07 43.64536 127.08395 38115 ft 383 kts 278°
2026-04-22 12:08 43.65318 127.01140 38056 ft 383 kts 278°
2026-04-22 12:08 43.66095 126.93896 38070 ft 384 kts 278°
2026-04-22 12:09 43.66869 126.86646 38076 ft 382 kts 278°
2026-04-22 12:09 43.67634 126.79403 38073 ft 383 kts 278°
2026-04-22 12:10 43.68401 126.72132 38105 ft 382 kts 278°
2026-04-22 12:10 43.69157 126.64895 38073 ft 382 kts 278°
2026-04-22 12:11 43.69908 126.57655 38123 ft 382 kts 279°
2026-04-22 12:11 43.70654 126.50455 38099 ft 382 kts 278°
2026-04-22 12:12 43.71397 126.43208 38107 ft 381 kts 278°
2026-04-22 12:12 43.72136 126.35961 38111 ft 381 kts 278°
2026-04-22 12:13 43.72863 126.28757 38092 ft 382 kts 278°
2026-04-22 12:13 43.73595 126.21479 38094 ft 382 kts 278°
2026-04-22 12:14 43.74318 126.14252 38095 ft 382 kts 278°
2026-04-22 12:14 43.75037 126.07006 38105 ft 382 kts 278°
2026-04-22 12:15 43.75751 125.99733 38109 ft 382 kts 278°
2026-04-22 12:15 43.76078 125.92444 38119 ft 386 kts 265°
2026-04-22 12:16 43.74330 125.85415 38103 ft 400 kts 244°
2026-04-22 12:16 43.72608 125.82347 38110 ft 411 kts 233°
2026-04-22 12:16 43.70358 125.79820 38096 ft 427 kts 221°
2026-04-22 12:17 43.64947 125.76172 38130 ft 430 kts 216°
2026-04-22 12:17 43.59612 125.72466 38128 ft 430 kts 216°
2026-04-22 12:18 43.54283 125.68730 38100 ft 429 kts 216°
2026-04-22 12:18 43.48988 125.64987 38111 ft 428 kts 216°
2026-04-22 12:19 43.43722 125.61259 38101 ft 427 kts 217°
2026-04-22 12:19 43.38483 125.57555 38106 ft 425 kts 217°
2026-04-22 12:20 43.33197 125.53816 38106 ft 427 kts 217°
2026-04-22 12:20 43.27932 125.50105 38096 ft 426 kts 217°
2026-04-22 12:21 43.22687 125.46414 38102 ft 425 kts 217°
2026-04-22 12:21 43.17413 125.42708 38105 ft 425 kts 217°
2026-04-22 12:22 43.12185 125.39043 38106 ft 422 kts 217°
2026-04-22 12:22 43.06981 125.35399 38111 ft 424 kts 217°
2026-04-22 12:23 43.01702 125.31711 37855 ft 424 kts 216°
2026-04-22 12:23 42.99100 125.29901 37652 ft 420 kts 216°
2026-04-22 12:23 42.96516 125.28104 37430 ft 417 kts 216°
2026-04-22 12:24 42.93933 125.26308 37216 ft 413 kts 216°
2026-04-22 12:24 42.91381 125.24535 37000 ft 410 kts 216°
2026-04-22 12:24 42.88849 125.22768 36791 ft 408 kts 217°
2026-04-22 12:24 42.86385 125.20898 36578 ft 404 kts 219°
2026-04-22 12:25 42.84042 125.18906 36289 ft 402 kts 222°
2026-04-22 12:25 42.81756 125.16736 35788 ft 400 kts 225°
2026-04-22 12:25 42.79583 125.14432 35159 ft 398 kts 227°
2026-04-22 12:25 42.77501 125.11990 34574 ft 398 kts 230°
2026-04-22 12:26 42.75470 125.09422 33799 ft 401 kts 230°
2026-04-22 12:26 42.73403 125.06850 33021 ft 404 kts 229°
2026-04-22 12:26 42.71271 125.04427 32271 ft 408 kts 226°
2026-04-22 12:26 42.68980 125.02078 31404 ft 415 kts 223°
2026-04-22 12:27 42.66580 124.99872 30481 ft 422 kts 221°
2026-04-22 12:27 42.64070 124.97810 29453 ft 430 kts 218°
2026-04-22 12:27 42.61436 124.95894 28427 ft 437 kts 215°
2026-04-22 12:27 42.58743 124.94017 27631 ft 433 kts 215°
2026-04-22 12:28 42.56103 124.92181 27047 ft 427 kts 215°
2026-04-22 12:28 42.53465 124.90356 26421 ft 421 kts 215°
2026-04-22 12:28 42.50887 124.88570 25809 ft 417 kts 215°
2026-04-22 12:28 42.48326 124.86793 25147 ft 414 kts 215°
2026-04-22 12:29 42.45766 124.85020 24531 ft 409 kts 215°
2026-04-22 12:29 42.43253 124.83279 23987 ft 405 kts 215°
2026-04-22 12:29 42.40773 124.81563 23412 ft 402 kts 215°
2026-04-22 12:29 42.38300 124.79850 22831 ft 400 kts 214°
2026-04-22 12:30 42.33359 124.76437 21634 ft 397 kts 214°
2026-04-22 12:30 42.30924 124.74758 21046 ft 395 kts 214°
2026-04-22 12:30 42.28495 124.73086 20463 ft 394 kts 214°
2026-04-22 12:31 42.26057 124.71410 19895 ft 392 kts 214°
2026-04-22 12:31 42.23624 124.69739 19309 ft 391 kts 213°
2026-04-22 12:31 42.21237 124.68097 18725 ft 390 kts 213°
2026-04-22 12:31 42.18828 124.66445 18124 ft 390 kts 213°
2026-04-22 12:32 42.16418 124.64793 17521 ft 388 kts 213°
2026-04-22 12:32 42.11630 124.61516 16382 ft 385 kts 212°
2026-04-22 12:32 42.09254 124.59894 15832 ft 383 kts 212°
2026-04-22 12:33 42.06880 124.58272 15273 ft 382 kts 212°
2026-04-22 12:33 42.04514 124.56657 14708 ft 380 kts 212°
2026-04-22 12:33 42.02171 124.55060 14165 ft 378 kts 212°
2026-04-22 12:33 41.99858 124.53437 13612 ft 375 kts 214°
2026-04-22 12:34 41.97606 124.51726 13039 ft 373 kts 214°
2026-04-22 12:34 41.95349 124.49999 12483 ft 370 kts 214°
2026-04-22 12:34 41.93140 124.48310 11935 ft 367 kts 214°
2026-04-22 12:34 41.90918 124.46612 11391 ft 364 kts 214°
2026-04-22 12:35 41.88736 124.44949 10956 ft 357 kts 214°
2026-04-22 12:35 41.86633 124.43352 10733 ft 343 kts 214°
2026-04-22 12:35 41.84574 124.41791 10519 ft 330 kts 214°
2026-04-22 12:35 41.82613 124.40301 10336 ft 318 kts 214°
2026-04-22 12:36 41.80735 124.38876 10168 ft 306 kts 215°
2026-04-22 12:36 41.78914 124.37495 10022 ft 295 kts 215°
2026-04-22 12:36 41.77163 124.36166 9770 ft 290 kts 215°
2026-04-22 12:36 41.75410 124.34832 9410 ft 289 kts 214°
2026-04-22 12:37 41.73670 124.33498 9058 ft 287 kts 217°
2026-04-22 12:37 41.72114 124.31856 8732 ft 282 kts 231°
2026-04-22 12:37 41.70845 124.29830 8741 ft 284 kts 237°
2026-04-22 12:37 41.69659 124.27717 8766 ft 285 kts 238°
2026-04-22 12:38 41.68475 124.25584 8792 ft 285 kts 238°
2026-04-22 12:38 41.67301 124.23480 8815 ft 285 kts 238°
2026-04-22 12:38 41.66100 124.21345 8830 ft 286 kts 238°
2026-04-22 12:38 41.64909 124.19239 8837 ft 286 kts 238°
2026-04-22 12:39 41.63702 124.17111 8835 ft 285 kts 238°
2026-04-22 12:39 41.61300 124.12878 8839 ft 286 kts 238°
2026-04-22 12:39 41.60089 124.10747 8840 ft 286 kts 238°
2026-04-22 12:40 41.58898 124.08657 8837 ft 287 kts 238°
2026-04-22 12:40 41.57691 124.06539 8838 ft 287 kts 238°
2026-04-22 12:40 41.56475 124.04410 8844 ft 287 kts 238°
2026-04-22 12:40 41.55260 124.02281 8843 ft 286 kts 238°
2026-04-22 12:41 41.54052 124.00166 8832 ft 287 kts 238°
2026-04-22 12:41 41.52847 123.98058 8836 ft 287 kts 238°
2026-04-22 12:41 41.51644 123.95958 8836 ft 287 kts 238°
2026-04-22 12:41 41.50429 123.93835 8847 ft 287 kts 238°
2026-04-22 12:42 41.49226 123.91737 8845 ft 286 kts 238°
2026-04-22 12:42 41.48013 123.89625 8843 ft 286 kts 238°
2026-04-22 12:42 41.46795 123.87502 8843 ft 286 kts 238°
2026-04-22 12:42 41.45592 123.85411 8842 ft 286 kts 238°
2026-04-22 12:43 41.44385 123.83315 8842 ft 286 kts 238°
2026-04-22 12:43 41.43169 123.81201 8849 ft 286 kts 238°
2026-04-22 12:43 41.41956 123.79095 8846 ft 287 kts 238°
2026-04-22 12:43 41.40808 123.76921 8843 ft 282 kts 250°
2026-04-22 12:44 41.40366 123.74473 8841 ft 269 kts 276°
2026-04-22 12:44 41.40603 123.72039 8787 ft 266 kts 285°
2026-04-22 12:44 41.40931 123.69614 8379 ft 267 kts 285°
2026-04-22 12:44 41.41246 123.67211 7986 ft 266 kts 284°
2026-04-22 12:45 41.41554 123.64790 7621 ft 263 kts 284°
2026-04-22 12:45 41.41853 123.62388 7266 ft 261 kts 284°
2026-04-22 12:45 41.42143 123.60040 6925 ft 259 kts 284°
2026-04-22 12:45 41.42435 123.57663 6576 ft 258 kts 284°
2026-04-22 12:46 41.42721 123.55334 6237 ft 256 kts 284°
2026-04-22 12:46 41.43003 123.53011 5899 ft 255 kts 283°
2026-04-22 12:46 41.43191 123.50646 5556 ft 255 kts 279°
2026-04-22 12:46 41.43325 123.48314 5223 ft 254 kts 279°
2026-04-22 12:47 41.43454 123.45960 4934 ft 251 kts 279°
2026-04-22 12:47 41.43575 123.43690 4829 ft 240 kts 278°
2026-04-22 12:47 41.43689 123.41532 4742 ft 230 kts 279°
2026-04-22 12:47 41.43801 123.39440 4663 ft 219 kts 279°
2026-04-22 12:48 41.43913 123.37486 4583 ft 209 kts 282°
2026-04-22 12:48 41.44405 123.35770 4432 ft 195 kts 316°
2026-04-22 12:48 41.45462 123.34648 4184 ft 193 kts 327°
2026-04-22 12:48 41.46545 123.33591 3940 ft 196 kts 326°
2026-04-22 12:49 41.47638 123.32490 3694 ft 197 kts 325°
2026-04-22 12:49 41.48716 123.31387 3454 ft 197 kts 325°
2026-04-22 12:49 41.49842 123.30326 3200 ft 196 kts 339°
2026-04-22 12:49 41.51151 123.30170 3004 ft 188 kts 17°
2026-04-22 12:50 41.52251 123.30954 2994 ft 176 kts 37°
2026-04-22 12:50 41.53158 123.32053 3075 ft 175 kts 43°
2026-04-22 12:50 41.54004 123.33228 2891 ft 175 kts 45°
2026-04-22 12:50 41.54816 123.34428 2659 ft 173 kts 46°
2026-04-22 12:51 41.55614 123.35634 2429 ft 173 kts 47°
2026-04-22 12:51 41.56393 123.36820 2195 ft 166 kts 47°
2026-04-22 12:51 41.57131 123.37943 1989 ft 154 kts 46°
2026-04-22 12:51 41.57828 123.38999 1783 ft 152 kts 47°
2026-04-22 12:52 41.58519 123.40045 1570 ft 145 kts 47°
2026-04-22 12:52 41.59164 123.41022 1365 ft 134 kts 47°
2026-04-22 12:52 41.59755 123.41917 1186 ft 127 kts 47°
2026-04-22 12:52 41.60341 123.42804 1028 ft 127 kts 47°
2026-04-22 12:53 41.60923 123.43684 863 ft 126 kts 48°
2026-04-22 12:53 41.61490 123.44546 695 ft 126 kts 48°
2026-04-22 12:53 41.62074 123.45428 516 ft 126 kts 48°
2026-04-22 12:53 41.62654 123.46297 354 ft 125 kts 48°
2026-04-22 12:54 41.63226 123.47173 213 ft 124 kts 48°
2026-04-22 12:54 41.63700 123.47891 207 ft 78 kts 49°
2026-04-22 12:54 41.63959 123.48283 207 ft 40 kts 48°
2026-04-22 12:54 41.64139 123.48554 207 ft 37 kts 49°
2026-04-22 12:55 41.64259 123.48837 207 ft 33 kts 80°
2026-04-22 12:55 41.64284 123.49045 207 ft 17 kts 117°
2026-04-22 12:55 41.64196 123.49158 207 ft 18 kts 137°
2026-04-22 12:55 41.64091 123.49254 207 ft 18 kts 158°
2026-04-22 12:56 41.63993 123.49174 207 ft 18 kts 229°
2026-04-22 12:56 41.63909 123.49048 207 ft 12 kts 225°
2026-04-22 12:56 41.63844 123.49050 207 ft 4 kts 139°
2026-04-22 12:56 41.63822 123.49076 207 ft 0 kts 138°